Change the Weather History Date:

Sunday, March 3, 2013

  Actual Average Record
Temperature  
Mean Temperature 38 °F -  
Max Temperature 45 °F 60 °F 81 °F (1976)
Min Temperature 30 °F 36 °F 11 °F (1980)
Degree Days  
Heating Degree Days 28    
Moisture  
Dew Point 17 °F    
Average Humidity 47    
Maximum Humidity 56    
Minimum Humidity 37    
Precipitation  
Precipitation 0.00 in - - ()
Sea Level Pressure  
Sea Level Pressure 29.92 in    
Wind  
Wind Speed 9 mph (NW)    
Max Wind Speed 15 mph    
Max Gust Speed 21 mph    
Visibility 10 miles    
Events      
Averages and records for this station are not official NWS values.
T = Trace of Precipitation, MM = Missing Value Source: NWS Daily Summary

Daily Weather History Graph

Daily Weather History Graph

Search for Another Location

Airport or City:

Trip Planner

Search our weather history database for the weather conditions in past years. The results will help you decide how hot, cold, wet, or windy it might be!

Date:

Astronomy

Mar. 03, 2013 Rise Set
Actual Time 6:45 AM EST 6:14 PM EST
Civil Twilight 6:19 AM EST 6:40 PM EST
Nautical Twilight 5:49 AM EST 7:10 PM EST
Astronomical Twilight 5:20 AM EST 7:40 PM EST
Moon No Moon Rise 10:11 AM EST (3/3)
Length of Visible Light 12h 21m
Length of Day
11h 29m
Waning Gibbous, 64% of the Moon is Illuminated
Mar 3
Waning Gibbous
Mar 4
Last Quarter
Mar 11
New
Mar 19
First Quarter
Mar 27
Full

Hourly Weather History & Observations

Time (EST) Temp. Windchill Dew Point Humidity Pressure Visibility Wind Dir Wind Speed Gust Speed Precip Events Conditions
12:54 AM 32.0 °F 24.2 °F 17.1 °F 54% 29.92 in 10.0 mi NW 9.2 mph - N/A   Overcast
1:54 AM 33.1 °F 24.4 °F 18.0 °F 54% 29.92 in 10.0 mi NW 11.5 mph - N/A   Overcast
2:54 AM 33.1 °F 25.5 °F 17.1 °F 52% 29.90 in 10.0 mi NNW 9.2 mph 18.4 mph N/A   Overcast
3:54 AM 32.0 °F 22.5 °F 15.1 °F 50% 29.89 in 10.0 mi WNW 12.7 mph 16.1 mph N/A   Mostly Cloudy
4:54 AM 32.0 °F 24.2 °F 16.0 °F 52% 29.90 in 10.0 mi WNW 9.2 mph - N/A   Overcast
5:54 AM 32.0 °F 24.2 °F 16.0 °F 52% 29.92 in 10.0 mi WNW 9.2 mph - N/A   Overcast
6:54 AM 30.9 °F 24.3 °F 16.0 °F 54% 29.93 in 10.0 mi NW 6.9 mph - N/A   Overcast
7:54 AM 30.9 °F 23.5 °F 16.0 °F 54% 29.94 in 10.0 mi West 8.1 mph - N/A   Mostly Cloudy
8:54 AM 34.0 °F 25.5 °F 16.0 °F 48% 29.95 in 10.0 mi WNW 11.5 mph - N/A   Clear
9:54 AM 37.0 °F 31.0 °F 16.0 °F 42% 29.94 in 10.0 mi NNW 8.1 mph - N/A   Clear
10:54 AM 39.0 °F 33.4 °F 17.1 °F 41% 29.93 in 10.0 mi NW 8.1 mph - N/A   Clear
11:54 AM 39.9 °F 36.7 °F 17.1 °F 40% 29.92 in 10.0 mi Variable 4.6 mph - N/A   Scattered Clouds
12:54 PM 42.1 °F 36.6 °F 18.0 °F 38% 29.89 in 10.0 mi West 9.2 mph 17.3 mph N/A   Scattered Clouds
1:54 PM 43.0 °F 36.8 °F 19.9 °F 40% 29.87 in 10.0 mi West 11.5 mph 18.4 mph N/A   Mostly Cloudy
2:54 PM 44.1 °F 38.1 °F 19.0 °F 37% 29.86 in 10.0 mi West 11.5 mph 17.3 mph N/A   Scattered Clouds
3:54 PM 45.0 °F 39.3 °F 19.9 °F 37% 29.86 in 10.0 mi NNW 11.5 mph - N/A   Mostly Cloudy
4:54 PM 42.1 °F 34.5 °F 19.0 °F 40% 29.87 in 10.0 mi NNW 15.0 mph 20.7 mph N/A   Mostly Cloudy
5:54 PM 39.0 °F 32.3 °F 18.0 °F 43% 29.90 in 10.0 mi NW 10.4 mph 18.4 mph N/A   Clear
6:54 PM 36.0 °F 29.0 °F 17.1 °F 46% 29.92 in 10.0 mi NNW 9.2 mph - N/A   Clear
7:54 PM 34.0 °F 28.8 °F 16.0 °F 48% 29.95 in 10.0 mi NNW 5.8 mph - N/A   Clear
8:54 PM 32.0 °F 27.5 °F 16.0 °F 52% 29.96 in 10.0 mi NW 4.6 mph - N/A   Clear
9:54 PM 30.0 °F 24.1 °F 16.0 °F 56% 29.97 in 10.0 mi NW 5.8 mph - N/A   Clear
10:54 PM 30.9 °F 26.2 °F 15.1 °F 52% 29.99 in 10.0 mi WNW 4.6 mph - N/A   Clear
11:54 PM 30.0 °F 26.5 °F 15.1 °F 54% 29.98 in 10.0 mi WNW 3.5 mph - N/A   Mostly Cloudy